Retour au catalogue

NPSAT1

ActifMilitaireLEO
NORAD 44340·PAYLOAD·🇺🇸 United States

Lancé Jun 25, 2019 depuis Cape Canaveral Space Force Station

Loading…

Prochains Passages (prochaines 24 heures)

TLE

FraisSource: Space-Track

Époque: Sep 14, 2026, 13:22 UTC

1 44340U 19036B   26257.55750165  .00004296  00000-0  58447-3 0  9992
2 44340  24.0001 355.3576 0007588 136.5797 223.5298 14.75277973385700

Suivez NPSAT1 en temps réel avec AllMySat

Download on the App Store